Location: Fort Collins
(40.5850°N, 105.0840°W)
Time: 08:50:52
(UTC-06:00)

Cosmos 2297 Rocket - Visible Passes

Search period start: 02 September 2015 00:00
Search period end: 12 September 2015 00:00
Orbit: 838 x 845 km, 71.0° (Epoch: 01 September)

Date Brightness Start Highest point End Pass type
(mag) Time Alt. Az. Time Alt. Az. Time Alt. Az.
02 Sep 4.9 00:29:01 10° WNW 00:29:20 11° WNW 00:29:20 11° WNW visible
02 Sep 4.4 20:48:12 10° NE 20:48:39 10° NE 20:49:24 10° NE visible
02 Sep 2.9 22:28:30 10° NNW 22:32:48 47° NNE 22:32:48 47° NNE visible
03 Sep 4.8 00:13:49 10° WNW 00:14:36 13° WNW 00:14:36 13° WNW visible
03 Sep 2.7 22:13:27 10° NNW 22:18:05 50° NNE 22:18:05 50° NNE visible
03 Sep 4.7 23:58:37 10° NW 23:59:54 14° WNW 23:59:54 14° WNW visible
04 Sep 2.6 21:58:24 10° NNW 22:03:25 51° NE 22:03:25 51° NE visible
04 Sep 4.5 23:43:26 10° NW 23:45:14 16° WNW 23:45:14 16° WNW visible
05 Sep 2.5 21:43:21 10° NNW 21:48:47 51° ENE 21:48:47 51° ENE visible
05 Sep 4.4 23:28:16 10° NW 23:30:36 19° WNW 23:30:36 19° WNW visible
06 Sep 2.5 21:28:18 10° NNW 21:33:46 48° ENE 21:34:11 47° ENE visible
06 Sep 4.2 23:13:06 10° NW 23:16:01 21° W 23:16:01 21° W visible
07 Sep 2.5 21:13:16 10° NNW 21:18:41 46° ENE 21:19:39 42° E visible
07 Sep 4.0 22:57:56 10° NW 23:01:29 23° W 23:01:29 23° W visible
08 Sep 2.6 20:58:14 10° N 21:03:36 43° ENE 21:05:10 36° E visible
08 Sep 3.9 22:42:48 10° NW 22:47:00 26° W 22:47:00 26° W visible
09 Sep 2.7 20:43:12 10° N 20:48:31 41° ENE 20:50:44 29° ESE visible
09 Sep 3.7 22:27:39 10° NW 22:32:24 27° WSW 22:32:34 27° WSW visible
10 Sep 2.8 20:28:10 10° N 20:33:26 39° ENE 20:36:22 23° ESE visible
10 Sep 3.6 22:12:31 10° NW 22:17:22 29° WSW 22:18:12 28° WSW visible
11 Sep 2.8 20:13:08 10° N 20:18:21 37° ENE 20:22:05 18° ESE visible
11 Sep 3.6 21:57:23 10° NW 22:02:19 31° WSW 22:03:55 26° SW visible
